Location: Kermapucano
(48.0667°N, 3.3000°W)
Time: 19:26:36
(UTC+00:00)

CZ-4C R/B - Pass Details

Date: 29 November 2020
Orbit: 619 x 1382 km, 63.4° (Epoch: 27 January)

Event Time Altitude Azimuth Distance (km) Brightness Sun altitude
Exits shadow 05:11:06 18° 197° (SSW) 1,739 3.7 -24.1°
Maximum altitude 05:14:45 57° 123° (ESE) 916 2.6 -23.5°
Drops below altitude 10° 05:20:31 10° 46° (NE) 2,592 5.2 -22.6°
Sets 05:23:21 0° 43° (NE) 3,667 6.0 -22.1°
